Regional Weather Roundup
Issued by NWS Cleveland, OH

Home | Current Version | Previous Version | Text Only | Print | Product List | Glossary Off
Versions: 1 2 3 4 5 6 7 8 9 10 11 12 13 14 15 16 17 18 19 20 21 22 23 24 25 26 27 28 29 30 31 32 33 34 35 36 37 38 39 40 41 42 43 44 45 46 47 48 49 50

000
ASUS41 KCLE 011502
RWRCLE
OHIO REGIONAL WEATHER ROUNDUP
NATIONAL WEATHER SERVICE CLEVELAND, OH
1000 AM EST SUN FEB 01 2015

NOTE: "FAIR" INDICATES FEW OR NO CLOUDS BELOW 12,000 FEET WITH NO
SIGNIFICANT WEATHER AND/OR OBSTRUCTIONS TO VISIBILITY.

OHZ001>008-015>018-024>027-034-035-043-044-011600-
   NORTHWEST OHIO

CITY           SKY/WX    TMP DP  RH WIND       PRES   REMARKS
DEFIANCE       LGT SNOW  30  27  88 E14       30.02F VSB 3/4 WCI  19
FINDLAY        SNOW      33  31  92 E12       30.01F VSB 1/2 WCI  24
TOLEDO EXPRESS SNOW      25  23  92 E18       30.07F VSB 1/2 WCI  11
TOLEDO EXEC    SNOW      27  24  89 NE12      30.09F VSB 1/2 WCI  17
LIMA           LGT SNOW  35  32  88 SE14      29.99F FOG     WCI  26
$$

OHZ009>014-019>023-028>033-038-089-011600-
   NORTHEAST OHIO

CITY           SKY/WX    TMP DP  RH WIND       PRES   REMARKS
CLE-HOPKINS    LGT SNOW  29  27  92 SE6       30.14F VSB 3/4 WCI  23
CLE-LAKEFRONT  LGT SNOW  30  28  92 SE6       30.12F VSB 1   WCI  24
CUY CO. ARPT   LGT SNOW  32  30  93 SE5       30.13F VSB 1   WCI  27
LORAIN-ELYRIA  SNOW      29  28  96 SE6       30.11F VSB 1/2 WCI  23
ASHTABULA      LGT SNOW  27  25  92 SE3       30.15S FOG
AKRON-CANTON   LGT SNOW  30  26  85 S7        30.10F VSB 1   WCI  23
WOOSTER        CLOUDY    29  28  96 S6        30.09F FOG     WCI  23
MANSFIELD      LGT SNOW  30  29  96 SE9       30.06F FOG     WCI  22
YOUNGSTOWN     LGT SNOW  28  25  88 SE5       30.12F VSB 3/4 WCI  23
$$

OHZ042-051>053-060>062-070>072-077>081-011600-
  SOUTHWEST OHIO

CITY           SKY/WX    TMP DP  RH WIND       PRES   REMARKS
CINC-COVINGTON CLOUDY    40  23  50 S10       29.97F
CINC-LUNKEN    CLOUDY    39  26  59 S6        29.97F
HAMILTON       LGT RAIN  38  33  82 E8        29.97F
DAYTON         CLOUDY    34  32  92 SE10      29.98F WCI  26
WRIGHT-PAT AFB PTSUNNY   35  32  91 E7        29.99F WCI  29
DAYTON GENERAL CLOUDY    35  32  88 SE6       29.98S
WILMINGTON     CLOUDY    33  30  88 SE14G24   29.98F WCI  23
$$

OHZ036-037-039>041-045>050-054>059-063>069-073>076-082>088-011600-
  CENTRAL AND SOUTHEAST OHIO

CITY           SKY/WX    TMP DP  RH WIND       PRES   REMARKS
COLUMBUS       LGT SNOW  32  30  92 SE8       30.06F VSB 1   WCI  25
OSU AIRPORT    MIX PCPN  32  31  96 E9        30.04F FOG     WCI  24
BOLTON FIELD   NOT AVBL
RICKENBACK AFB NOT AVBL
NEWARK         LGT SNOW  33  31  92 SE5       30.08F VSB 3/4 WCI  29
MARION         SNOW      32  30  92 SE10      30.05F VSB 1/4 WCI  24
LANCASTER      MIX PCPN  32  31  96 SE7       30.08F FOG     WCI  26
ZANESVILLE     SNOW      30  28  92 SE7       30.12F VSB 1/2 WCI  23
NEW PHILLY     LGT SNOW  30  27  88 SE5       30.14F FOG     WCI  25
$$


USA.gov is the U.S. government's official web portal to all federal, state and local government web resources and services.